Weather History for Edinburg, TX

Change the Weather History Date:

Saturday, December 8, 2012

  Actual Average (KMFE) Record (KMFE)
Temperature  
Mean Temperature 76 °F 63 °F  
Max Temperature 86 °F 73 °F 90 °F (1996)
Min Temperature 66 °F 53 °F 34 °F (1913)
Degree Days  
Heating Degree Days 0 5  
Month to date heating degree days 35  
Since 1 July heating degree days 95  
Cooling Degree Days 11 3  
Month to date cooling degree days 26  
Year to date cooling degree days 4395  
Growing Degree Days 26 (Base 50)    
Moisture  
Dew Point 67 °F    
Average Humidity 76    
Maximum Humidity 93    
Minimum Humidity 49    
Precipitation  
Precipitation 0.00 in 0.03 in 0.81 in (1967)
Month to date precipitation 0.26  
Year to date precipitation 21.27  
Sea Level Pressure  
Sea Level Pressure 29.82 in    
Wind  
Wind Speed 7 mph (SSE)    
Max Wind Speed 16 mph    
Max Gust Speed 22 mph    
Visibility 5 miles    
Events Rain    
T = Trace of Precipitation, MM = Missing Value Source: NWS Daily Summary

Daily Weather History Graph

Daily Weather History Graph

Search for Another Location

Airport:

Trip Planner

Search our weather history database for the weather conditions in past years. The results will help you decide how hot, cold, wet, or windy it might be!

Date:

Astronomy

Dec. 08, 2012 Rise Set
Actual Time 7:08 AM CST 5:40 PM CST
Civil Twilight 6:43 AM CST 6:05 PM CST
Nautical Twilight 6:14 AM CST 6:34 PM CST
Astronomical Twilight 5:46 AM CST 7:02 PM CST
Moon 1:58 AM CST (12/8) 1:50 PM CST (12/8)
Length of Visible Light 11h 22m
Length of Day
10h 31m
Waning Crescent, 28% of the Moon is Illuminated
Dec 8
Waning Crescent
Dec 13
New
Dec 19
First Quarter
Dec 28
Full
Jan 4
Last Quarter

Hourly Weather History & Observations

Time (CST) Temp. Heat Index Dew Point Humidity Pressure Visibility Wind Dir Wind Speed Gust Speed Precip Events Conditions
12:15 AM 69.6 °F - 66.2 °F 89% 29.81 in 5.0 mi ESE 5.8 mph - N/A   Clear
12:35 AM 69.3 °F - 66.2 °F 90% 29.80 in 5.0 mi SE 4.6 mph - N/A   Clear
12:55 AM 69.8 °F - 66.6 °F 89% 29.80 in 5.0 mi SE 5.8 mph - N/A   Clear
1:15 AM 69.8 °F - 66.7 °F 90% 29.79 in 5.0 mi SE 5.8 mph - N/A   Clear
1:35 AM 69.8 °F - 66.7 °F 90% 29.80 in 5.0 mi SE 3.5 mph - N/A   Clear
1:55 AM 69.3 °F - 66.4 °F 91% 29.79 in 5.0 mi SE 4.6 mph - N/A   Clear
2:15 AM 70.5 °F - 67.6 °F 91% 29.79 in 5.0 mi SE 4.6 mph - N/A   Clear
2:35 AM 71.2 °F - 68.0 °F 89% 29.79 in 5.0 mi SSE 5.8 mph - N/A   Clear
2:55 AM 71.1 °F - 67.6 °F 89% 29.78 in 5.0 mi SE 4.6 mph - N/A   Clear
3:15 AM 70.9 °F - 67.5 °F 89% 29.78 in 5.0 mi SSE 4.6 mph - N/A   Clear
3:35 AM 70.7 °F - 67.5 °F 89% 29.79 in 5.0 mi SSE 4.6 mph - N/A   Clear
3:55 AM 70.7 °F - 67.8 °F 91% 29.79 in 4.0 mi SSE 4.6 mph - N/A   Clear
4:15 AM 70.7 °F - 67.6 °F 90% 29.79 in 4.0 mi SE 3.5 mph - N/A   Scattered Clouds
4:35 AM 70.0 °F - 67.3 °F 91% 29.79 in 4.0 mi SSE 3.5 mph - N/A   Scattered Clouds
4:55 AM 69.8 °F - 67.1 °F 91% 29.80 in 3.0 mi Calm Calm - N/A   Mist
5:15 AM 69.3 °F - 66.7 °F 92% 29.80 in 2.0 mi Calm Calm - N/A   Mist
5:55 AM 66.7 °F - 64.4 °F 92% 29.81 in 2.0 mi Calm Calm - N/A   Mist
6:15 AM 67.1 °F - 64.8 °F 92% 29.82 in 2.0 mi ENE 3.5 mph - N/A   Mist
6:35 AM 67.5 °F - 65.5 °F 93% 29.83 in 2.5 mi East 5.8 mph - N/A   Mist
6:55 AM 67.5 °F - 65.3 °F 93% 29.84 in 1.8 mi East 4.6 mph - N/A   Mist
7:15 AM 66.4 °F - 64.4 °F 93% 29.85 in 0.2 mi Calm Calm - N/A Rain Rain
7:35 AM 67.3 °F - 65.3 °F 93% 29.85 in 1.2 mi Calm Calm - N/A   Mist
7:55 AM 68.2 °F - 66.2 °F 93% 29.86 in 1.8 mi SE 3.5 mph - N/A   Mist
8:15 AM 70.0 °F - 67.8 °F 93% 29.86 in 2.0 mi ESE 4.6 mph - N/A   Mist
8:35 AM 71.2 °F - 69.1 °F 93% 29.87 in 2.5 mi Calm Calm - N/A   Clear
8:55 AM 72.9 °F - 70.7 °F 93% 29.87 in 3.0 mi SE 6.9 mph - N/A   Clear
9:15 AM 74.8 °F - 71.1 °F 88% 29.87 in 3.0 mi SSE 9.2 mph - N/A   Scattered Clouds
9:55 AM 77.5 °F - 70.3 °F 78% 29.88 in 5.0 mi SSE 9.2 mph - N/A   Haze
10:15 AM 78.6 °F - 69.6 °F 74% 29.88 in 5.0 mi South 12.7 mph 18.4 mph N/A   Haze
10:55 AM 81.5 °F 84.6 °F 68.9 °F 65% 29.87 in 7.0 mi South 16.1 mph 20.7 mph N/A   Scattered Clouds
11:15 AM 80.6 °F 83.4 °F 68.4 °F 66% 29.87 in 7.0 mi South 13.8 mph 18.4 mph N/A   Mostly Cloudy
11:35 AM 82.4 °F 85.4 °F 68.2 °F 62% 29.86 in 7.0 mi South 11.5 mph - N/A   Mostly Cloudy
11:55 AM 82.8 °F 85.8 °F 68.0 °F 61% 29.86 in 5.0 mi South 13.8 mph 18.4 mph N/A   Haze
12:15 PM 84.0 °F 86.5 °F 66.9 °F 56% 29.85 in 5.0 mi South 10.4 mph 19.6 mph N/A   Haze
12:35 PM 84.6 °F 86.8 °F 66.0 °F 54% 29.84 in 7.0 mi South 13.8 mph 21.9 mph N/A   Scattered Clouds
12:55 PM 84.6 °F 86.6 °F 65.8 °F 53% 29.82 in 5.0 mi South 15.0 mph 19.6 mph N/A   Haze
1:15 PM 85.3 °F 86.8 °F 64.8 °F 50% 29.81 in 7.0 mi South 13.8 mph 19.6 mph N/A   Scattered Clouds
1:55 PM 85.6 °F 87.1 °F 64.4 °F 49% 29.79 in 5.0 mi South 15.0 mph 19.6 mph N/A   Haze
2:15 PM 85.6 °F 87.4 °F 64.9 °F 50% 29.79 in 5.0 mi SE 9.2 mph - N/A   Haze
2:35 PM 85.3 °F 87.1 °F 65.5 °F 51% 29.78 in 5.0 mi SSE 6.9 mph - N/A   Haze
2:55 PM 86.4 °F 88.4 °F 65.5 °F 50% 29.78 in 5.0 mi South 10.4 mph - N/A   Haze
3:15 PM 85.6 °F 87.6 °F 65.7 °F 51% 29.78 in 5.0 mi South 11.5 mph 18.4 mph N/A   Haze
3:35 PM 84.4 °F 86.1 °F 65.1 °F 52% 29.78 in 5.0 mi South 13.8 mph - N/A   Haze
3:55 PM 85.3 °F 87.1 °F 65.1 °F 51% 29.77 in 5.0 mi SSE 12.7 mph 18.4 mph N/A   Haze
4:15 PM 85.1 °F 86.9 °F 64.9 °F 51% 29.77 in 5.0 mi South 11.5 mph 16.1 mph N/A   Haze
4:35 PM 84.7 °F 86.3 °F 64.9 °F 51% 29.78 in 7.0 mi SSE 11.5 mph 17.3 mph N/A   Clear
4:55 PM 83.1 °F 85.4 °F 66.4 °F 57% 29.78 in 5.0 mi SE 13.8 mph 20.7 mph N/A   Haze
5:15 PM 81.7 °F 84.0 °F 66.4 °F 60% 29.79 in 5.0 mi SSE 12.7 mph - N/A   Haze
5:35 PM 80.6 °F 82.9 °F 67.1 °F 63% 29.80 in 5.0 mi SSE 11.5 mph - N/A   Haze
6:15 PM 79.0 °F - 67.3 °F 67% 29.82 in 7.0 mi SSE 10.4 mph 16.1 mph N/A   Clear
6:55 PM 78.1 °F - 67.5 °F 70% 29.83 in 7.0 mi SSE 11.5 mph 16.1 mph N/A   Clear
7:15 PM 77.9 °F - 67.6 °F 71% 29.84 in 5.0 mi SSE 11.5 mph - N/A   Haze
7:35 PM 77.4 °F - 68.0 °F 73% 29.84 in 7.0 mi SSE 11.5 mph - N/A   Clear
7:55 PM 77.2 °F - 68.0 °F 73% 29.84 in 7.0 mi SSE 9.2 mph - N/A   Clear
8:15 PM 76.8 °F - 68.2 °F 75% 29.85 in 7.0 mi SSE 11.5 mph - N/A   Clear
8:35 PM 76.6 °F - 68.4 °F 75% 29.85 in 7.0 mi SSE 12.7 mph - N/A   Clear
8:55 PM 76.1 °F - 68.4 °F 77% 29.86 in 5.0 mi SSE 11.5 mph - N/A   Haze
9:15 PM 75.6 °F - 68.2 °F 78% 29.86 in 7.0 mi SSE 10.4 mph - N/A   Clear
9:35 PM 75.2 °F - 68.4 °F 79% 29.86 in 7.0 mi SSE 9.2 mph - N/A   Clear
9:55 PM 74.7 °F - 68.4 °F 81% 29.86 in 7.0 mi SSE 8.1 mph - N/A   Clear
10:15 PM 74.3 °F - 68.2 °F 81% 29.87 in 5.0 mi SSE 6.9 mph - N/A   Haze
10:35 PM 73.8 °F - 68.2 °F 83% 29.87 in 7.0 mi SSE 6.9 mph - N/A   Clear
11:15 PM 72.5 °F - 68.0 °F 86% 29.86 in 5.0 mi SSE 5.8 mph - N/A   Haze
11:35 PM 72.3 °F - 68.0 °F 86% 29.86 in 4.0 mi SE 5.8 mph - N/A   Clear
11:55 PM 71.4 °F - 67.5 °F 87% 29.85 in 5.0 mi SE 4.6 mph - N/A   Clear